Location: Davidschlag
(48.4333°N, 14.2833°E)
Time: 03:03:04
(UTC+00:00)

FREGAT/IRIS - Pass Details

Date: 27 February 2020
Orbit: 335 x 336 km, 96.9° (Epoch: 03 April)

Event Time Altitude Azimuth Distance (km) Brightness Sun altitude
Exits shadow 17:55:02 25° 74° (ENE) 733 3.4 -12.8°
Maximum altitude 17:55:07 25° 71° (ENE) 732 3.4 -12.8°
Drops below altitude 10° 17:57:27 10° 12° (NNE) 1,294 5.1 -13.2°
Sets 17:59:32 0° 359° (N) 2,137 6.4 -13.5°
